FW2297 Weather Reports


Display with metric or nautical units.
time (UTC)temp
F
wind
direction
speed
MPH
gust
MPH
rain 1hr
in
rain 24hr
in
rain mn
in
humidity
%
barometer
mb
20260508162551 52 300 2.0 14.0 0.00 0.00 0.00 42 1008.0
20260508162051 53 256 0.0 14.0 0.00 0.00 0.00 43 1008.1
20260508161553 52 233 1.0 15.0 0.00 0.00 0.00 43 1008.0
20260508161051 52 319 4.0 15.0 0.00 0.00 0.00 45 1007.8
20260508160551 52 0 0.0 9.0 0.00 0.00 0.00 44 1008.0
20260508160053 51 0 0.0 9.0 0.00 0.00 0.00 48 1008.0
20260508155550 50 0 0.0 9.0 0.00 0.00 0.00 47 1008.0
20260508155050 50 0 0.0 14.0 0.00 0.00 0.00 46 1008.1
20260508154554 50 0 1.0 14.0 0.00 0.00 0.00 44 1008.0
20260508154050 51 0 2.0 13.0 0.00 0.00 0.00 41 1007.9
20260508153551 51 0 1.0 13.0 0.00 0.00 0.00 39 1008.0
20260508153056 51 247 0.0 9.0 0.00 0.00 0.00 40 1008.0
20260508152550 52 0 0.0 4.0 0.00 0.00 0.00 40 1007.8
20260508152048 52 0 0.0 2.0 0.00 0.00 0.00 40 1007.8
20260508151556 51 0 0.0 13.0 0.00 0.00 0.00 39 1007.8
20260508151051 51 0 1.0 13.0 0.00 0.00 0.00 40 1007.9
20260508150550 51 0 0.0 7.0 0.00 0.00 0.00 40 1007.9
20260508150054 51 0 0.0 11.0 0.00 0.00 0.00 40 1007.7
20260508145551 51 0 1.0 11.0 0.00 0.00 0.00 39 1007.9
20260508145050 51 0 2.0 10.0 0.00 0.00 0.00 39 1008.1
20260508144555 52 0 0.0 10.0 0.00 0.00 0.00 39 1008.0
20260508144050 52 0 1.0 10.0 0.00 0.00 0.00 40 1008.0
20260508143552 52 0 1.0 10.0 0.00 0.00 0.00 41 1008.0
20260508143104 51 0 0.0 5.0 0.00 0.00 0.00 42 1008.0
20260508142553 51 0 0.0 1.0 0.00 0.00 0.00 43 1008.2
20260508142051 51 0 0.0 1.0 0.00 0.00 0.00 42 1008.2
20260508141554 50 0 0.0 8.0 0.00 0.00 0.00 43 1008.4
20260508141050 50 0 0.0 8.0 0.00 0.00 0.00 45 1008.3
20260508140551 50 0 0.0 8.0 0.00 0.00 0.00 45 1008.3
20260508140104 51 292 0.0 9.0 0.00 0.00 0.00 45 1008.4
20260508135551 52 0 0.0 9.0 0.00 0.00 0.00 43 1008.3
20260508135051 53 0 0.0 7.0 0.00 0.00 0.00 44 1008.3
20260508134558 51 0 0.0 8.0 0.00 0.00 0.00 47 1008.3
20260508134050 50 0 0.0 8.0 0.00 0.00 0.00 47 1008.5
20260508133551 50 0 0.0 8.0 0.00 0.00 0.00 48 1008.5
20260508133055 49 0 0.0 8.0 0.00 0.00 0.00 48 1008.6
20260508132551 49 0 1.0 8.0 0.00 0.00 0.00 49 1008.6
20260508132052 49 0 0.0 7.0 0.00 0.00 0.00 50 1008.6
20260508131553 49 0 0.0 7.0 0.00 0.00 0.00 50 1008.7
20260508131051 49 0 0.0 7.0 0.00 0.00 0.00 52 1008.6
20260508130552 48 0 0.0 7.0 0.00 0.00 0.00 53 1008.6
20260508130053 48 0 0.0 7.0 0.00 0.00 0.00 55 1008.6
20260508125552 48 0 0.0 4.0 0.00 0.00 0.00 56 1008.6
20260508125052 47 0 0.0 8.0 0.00 0.00 0.00 58 1008.7
20260508124554 46 0 0.0 8.0 0.00 0.00 0.00 58 1008.7
20260508124051 46 0 0.0 1.0 0.00 0.00 0.00 60 1008.7
20260508123551 46 0 0.0 3.0 0.00 0.00 0.00 61 1008.7
20260508123054 45 0 0.0 3.0 0.00 0.00 0.00 66 1008.7
20260508122550 44 0 0.0 1.0 0.00 0.00 0.00 65 1008.7
20260508122050 43 0 0.0 0.0 0.00 0.00 0.00 68 1008.7
20260508121552 42 0 0.0 0.0 0.00 0.00 0.00 70 1008.6
20260508121053 41 0 0.0 0.0 0.00 0.00 0.00 71 1008.7
20260508120551 40 0 0.0 0.0 0.00 0.00 0.00 71 1008.8
20260508120056 40 0 0.0 0.0 0.00 0.00 0.00 74 1008.6
20260508115552 39 0 0.0 0.0 0.00 0.00 0.00 73 1008.7
20260508115051 39 0 0.0 0.0 0.00 0.00 0.00 74 1008.7
20260508114605 38 0 0.0 0.0 0.00 0.00 0.00 76 1008.7
20260508114052 37 0 0.0 0.0 0.00 0.00 0.00 78 1008.7
20260508113551 37 0 0.0 0.0 0.00 0.00 0.00 80 1008.7
20260508113104 36 0 0.0 0.0 0.00 0.00 0.00 83 1008.6
20260508112551 35 0 0.0 0.0 0.00 0.00 0.00 85 1008.6
20260508112051 35 0 0.0 0.0 0.00 0.00 0.00 88 1008.8
20260508111614 34 0 0.0 0.0 0.00 0.00 0.00 90 1008.6
20260508111053 33 0 0.0 0.0 0.00 0.00 0.00 91 1008.6
20260508110552 32 0 0.0 0.0 0.00 0.00 0.00 91 1008.5
20260508110057 32 0 0.0 0.0 0.00 0.00 0.00 92 1008.6
20260508105555 31 0 0.0 0.0 0.00 0.00 0.00 92 1008.6
20260508105054 30 0 0.0 0.0 0.00 0.00 0.00 91 1008.5
20260508104556 30 0 0.0 0.0 0.00 0.00 0.00 90 1008.5
20260508104052 30 0 0.0 0.0 0.00 0.00 0.00 90 1008.4
20260508103553 30 0 0.0 0.0 0.00 0.00 0.00 90 1008.3
20260508103052 29 0 0.0 0.0 0.00 0.00 0.00 90 1008.3
20260508102551 29 0 0.0 0.0 0.00 0.00 0.00 90 1008.2
20260508102051 29 0 0.0 0.0 0.00 0.00 0.00 90 1008.2
20260508101555 29 0 0.0 0.0 0.00 0.00 0.00 90 1008.0
20260508101052 29 0 0.0 0.0 0.00 0.00 0.00 90 1008.0
20260508100555 29 0 0.0 0.0 0.00 0.00 0.00 90 1008.0
20260508100052 29 0 0.0 0.0 0.00 0.00 0.00 90 1007.9
20260508095551 29 0 0.0 0.0 0.00 0.00 0.00 90 1007.9
20260508095052 29 0 0.0 0.0 0.00 0.00 0.00 90 1007.7
20260508094559 29 0 0.0 0.0 0.00 0.00 0.00 89 1007.9
20260508094052 29 0 0.0 0.0 0.00 0.00 0.00 89 1007.7
20260508093552 29 0 0.0 0.0 0.00 0.00 0.00 89 1007.6
20260508093059 29 0 0.0 0.0 0.00 0.00 0.00 89 1007.6
20260508092553 30 0 0.0 0.0 0.00 0.00 0.00 89 1007.6
20260508092051 30 0 0.0 0.0 0.00 0.00 0.00 89 1007.5
20260508091603 30 0 0.0 0.0 0.00 0.00 0.00 89 1007.5
20260508091051 30 0 0.0 0.0 0.00 0.00 0.00 89 1007.5
20260508090551 30 0 0.0 0.0 0.00 0.00 0.00 89 1007.4
20260508090057 30 0 0.0 0.0 0.00 0.00 0.00 88 1007.3
20260508085551 30 0 0.0 0.0 0.00 0.00 0.00 88 1007.5
20260508085050 30 0 0.0 0.0 0.00 0.00 0.00 88 1007.4
20260508084551 30 0 0.0 0.0 0.00 0.00 0.00 88 1007.3
20260508084052 30 0 0.0 0.0 0.00 0.00 0.00 88 1007.4
20260508083550 30 0 0.0 0.0 0.00 0.00 0.00 87 1007.2
20260508083107 30 0 0.0 0.0 0.00 0.00 0.00 86 1007.3
20260508082552 31 0 0.0 0.0 0.00 0.00 0.00 87 1007.1
20260508082052 31 0 0.0 0.0 0.00 0.00 0.00 86 1007.2
20260508081601 31 0 0.0 0.0 0.00 0.00 0.00 86 1007.1
20260508081052 31 0 0.0 0.0 0.00 0.00 0.00 86 1006.9
20260508080552 31 0 0.0 0.0 0.00 0.00 0.00 86 1007.1
20260508080104 31 0 0.0 0.0 0.00 0.00 0.00 86 1006.9
20260508075552 31 0 0.0 0.0 0.00 0.00 0.00 86 1007.0
20260508075053 31 0 0.0 0.0 0.00 0.00 0.00 86 1006.9
20260508074603 31 0 0.0 0.0 0.00 0.00 0.00 86 1007.0
20260508074052 31 0 0.0 0.0 0.00 0.00 0.00 85 1006.9
20260508073552 31 0 0.0 0.0 0.00 0.00 0.00 85 1006.8
20260508073057 31 0 0.0 0.0 0.00 0.00 0.00 85 1006.8
20260508072550 31 0 0.0 0.0 0.00 0.00 0.00 85 1006.9
20260508072050 32 0 0.0 0.0 0.00 0.00 0.00 85 1006.9
20260508071553 32 0 0.0 0.0 0.00 0.00 0.00 85 1007.1
20260508071052 32 0 0.0 0.0 0.00 0.00 0.00 84 1007.0
20260508070552 32 0 0.0 0.0 0.00 0.00 0.00 84 1007.1
20260508070055 32 0 0.0 0.0 0.00 0.00 0.00 84 1007.0
20260508065551 32 0 0.0 0.0 0.00 0.01 0.00 82 1006.9
20260508065048 32 0 0.0 0.0 0.00 0.01 0.00 82 1007.1
20260508064555 32 0 0.0 0.0 0.00 0.01 0.00 82 1006.8
20260508064055 32 0 0.0 0.0 0.00 0.01 0.00 81 1006.9
20260508063550 33 0 0.0 0.0 0.00 0.01 0.00 81 1006.9
20260508063051 33 0 0.0 0.0 0.00 0.01 0.00 81 1007.0
20260508062550 33 0 0.0 0.0 0.00 0.01 0.00 81 1007.0
20260508062052 33 0 0.0 0.0 0.00 0.01 0.00 80 1007.1
20260508061601 33 0 0.0 0.0 0.00 0.01 0.00 80 1007.1
20260508061048 33 0 0.0 0.0 0.00 0.01 0.00 80 1007.3
20260508060551 33 0 0.0 0.0 0.00 0.01 0.00 80 1007.3
20260508060057 34 0 0.0 0.0 0.00 0.01 0.00 79 1007.3
20260508055551 34 0 0.0 0.0 0.00 0.01 0.00 79 1007.4
20260508055051 34 0 0.0 0.0 0.00 0.01 0.00 79 1007.6
20260508054553 34 0 0.0 0.0 0.00 0.01 0.00 79 1007.6
20260508054050 34 0 0.0 0.0 0.00 0.01 0.00 78 1007.5
20260508053551 34 0 0.0 0.0 0.00 0.01 0.00 78 1007.6
20260508053106 34 0 0.0 0.0 0.00 0.01 0.00 78 1007.5
20260508052551 34 0 0.0 0.0 0.00 0.01 0.00 78 1007.5
20260508052051 35 0 0.0 0.0 0.00 0.01 0.00 78 1007.6
20260508051605 35 0 0.0 0.0 0.00 0.01 0.00 77 1007.7
20260508051051 35 0 0.0 0.0 0.00 0.01 0.00 75 1007.7
20260508050552 35 0 0.0 0.0 0.00 0.01 0.00 75 1007.7
20260508050056 35 0 0.0 0.0 0.00 0.01 0.00 74 1007.8
20260508045552 35 0 0.0 0.0 0.00 0.01 0.00 74 1007.8
20260508045052 35 0 0.0 0.0 0.00 0.01 0.00 74 1007.8
20260508044553 35 0 0.0 0.0 0.00 0.01 0.00 75 1007.7
20260508044050 36 0 0.0 0.0 0.00 0.01 0.00 75 1007.7
20260508043551 36 0 0.0 0.0 0.00 0.01 0.00 74 1007.8
20260508043054 36 0 0.0 0.0 0.00 0.01 0.00 73 1007.9
20260508042552 37 0 0.0 0.0 0.00 0.01 0.00 72 1007.8
20260508042052 37 0 0.0 0.0 0.00 0.01 0.00 70 1007.8
20260508041600 37 0 0.0 0.0 0.00 0.01 0.00 69 1007.8
20260508041052 37 0 0.0 0.0 0.00 0.01 0.00 69 1007.8
20260508040552 38 0 0.0 0.0 0.00 0.01 0.00 69 1007.9
20260508035551 38 0 0.0 0.0 0.00 0.02 0.01 68 1007.9
20260508035052 38 0 0.0 0.0 0.00 0.02 0.01 67 1007.8
20260508034602 38 0 0.0 0.0 0.00 0.02 0.01 66 1007.8
20260508034052 39 0 0.0 0.0 0.00 0.02 0.01 65 1007.6
20260508033551 39 0 0.0 0.0 0.00 0.02 0.01 64 1007.7
20260508033059 39 0 0.0 0.0 0.00 0.02 0.01 63 1007.7
20260508032552 39 0 0.0 0.0 0.00 0.02 0.01 63 1007.6
20260508032052 39 0 0.0 0.0 0.00 0.02 0.01 65 1007.7
20260508031557 40 0 0.0 0.0 0.00 0.02 0.01 65 1007.8
20260508031051 40 0 0.0 0.0 0.00 0.02 0.01 65 1007.7
20260508030551 40 0 0.0 0.0 0.00 0.02 0.01 63 1007.8
20260508030052 41 0 0.0 0.0 0.00 0.02 0.01 62 1007.7
20260508025548 41 0 0.0 0.0 0.00 0.03 0.01 61 1007.8
20260508025052 41 0 0.0 0.0 0.00 0.03 0.01 59 1007.7
20260508024604 42 0 0.0 0.0 0.00 0.03 0.01 59 1007.7
20260508024048 42 0 0.0 0.0 0.00 0.03 0.01 57 1007.7
20260508023551 42 0 0.0 0.0 0.00 0.03 0.01 57 1007.7
20260508023055 43 0 0.0 0.0 0.00 0.03 0.01 57 1007.8
20260508022552 43 0 0.0 0.0 0.00 0.03 0.01 56 1007.7
20260508022052 44 0 0.0 0.0 0.00 0.03 0.01 54 1007.6
20260508021552 44 0 0.0 0.0 0.00 0.03 0.01 54 1007.6
20260508021051 44 0 0.0 0.0 0.00 0.03 0.01 54 1007.5
20260508020552 45 0 0.0 0.0 0.00 0.03 0.01 52 1007.6
20260508020058 45 0 0.0 0.0 0.00 0.03 0.01 51 1007.4
20260508015551 45 0 0.0 0.0 0.00 0.06 0.01 48 1007.4
20260508015052 46 0 0.0 0.0 0.00 0.06 0.01 47 1007.4
20260508014555 46 0 0.0 0.0 0.00 0.06 0.01 47 1007.4
20260508014054 46 0 0.0 0.0 0.00 0.06 0.01 47 1007.3
20260508013551 46 0 0.0 0.0 0.00 0.06 0.01 47 1007.3
20260508013055 47 0 0.0 0.0 0.00 0.06 0.01 46 1007.4
20260508012550 47 0 0.0 0.0 0.00 0.06 0.01 45 1007.4
20260508012051 47 0 0.0 0.0 0.00 0.06 0.01 45 1007.1
20260508011605 47 0 0.0 2.0 0.00 0.06 0.01 45 1006.9
20260508011048 47 0 0.0 2.0 0.00 0.06 0.01 45 1007.0
20260508010552 48 0 0.0 2.0 0.00 0.06 0.01 44 1006.9
20260508010053 48 0 0.0 0.0 0.00 0.06 0.01 44 1006.9
20260508005551 48 0 0.0 6.0 0.00 0.06 0.01 43 1006.8
20260508005052 48 0 0.0 8.0 0.00 0.06 0.01 43 1006.8
20260508004557 49 0 0.0 8.0 0.00 0.06 0.01 43 1006.7
20260508004052 49 0 0.0 8.0 0.00 0.06 0.01 42 1006.5
20260508003552 49 0 0.0 9.0 0.00 0.06 0.01 42 1006.6
20260508003053 49 0 0.0 9.0 0.00 0.06 0.01 42 1006.6
20260508002551 49 0 0.0 10.0 0.00 0.06 0.01 41 1006.6
20260508002051 50 0 1.0 10.0 0.00 0.06 0.01 41 1006.5
20260508001555 50 0 0.0 7.0 0.00 0.06 0.01 41 1006.4
20260508001048 50 0 0.0 14.0 0.00 0.06 0.01 40 1006.4
20260508000552 50 0 1.0 14.0 0.00 0.06 0.01 40 1006.4
20260508000053 51 0 1.0 14.0 0.00 0.06 0.01 39 1006.3
20260507235552 51 0 1.0 10.0 0.00 0.08 0.01 40 1006.2
20260507235051 51 0 0.0 8.0 0.00 0.08 0.01 39 1006.2
20260507234556 52 0 1.0 9.0 0.00 0.08 0.01 40 1006.0
20260507234052 52 0 0.0 9.0 0.00 0.08 0.01 39 1005.9
20260507233552 52 0 0.0 6.0 0.00 0.08 0.01 39 1006.0
20260507233053 52 0 0.0 6.0 0.00 0.08 0.01 38 1005.9
20260507232552 53 0 0.0 4.0 0.00 0.08 0.01 39 1005.8
20260507232051 53 0 0.0 12.0 0.00 0.08 0.01 38 1005.7
20260507231559 53 0 2.0 12.0 0.00 0.08 0.01 38 1005.7
20260507231055 53 333 1.0 9.0 0.00 0.08 0.01 37 1005.7
20260507230552 54 0 0.0 9.0 0.00 0.08 0.01 37 1005.5
20260507230058 54 0 1.0 9.0 0.00 0.08 0.01 36 1005.5
20260507225551 54 0 0.0 4.0 0.00 0.09 0.01 36 1005.4
20260507225049 54 0 0.0 7.0 0.00 0.09 0.01 36 1005.3
20260507224556 54 0 0.0 7.0 0.00 0.09 0.01 35 1005.1
20260507224052 54 0 0.0 13.0 0.00 0.09 0.01 36 1005.1
20260507223553 55 0 0.0 14.0 0.00 0.09 0.01 35 1005.0
20260507223057 55 0 2.0 14.0 0.00 0.09 0.01 34 1004.8
20260507222547 55 0 1.0 14.0 0.00 0.09 0.01 34 1004.7
20260507222051 56 0 0.0 17.0 0.00 0.09 0.01 34 1004.8
20260507221555 56 0 4.0 17.0 0.00 0.09 0.01 34 1004.9
20260507221052 56 242 3.0 15.0 0.00 0.09 0.01 32 1004.6
20260507220553 56 240 4.0 18.0 0.00 0.09 0.01 32 1004.9
20260507220059 57 247 7.0 18.0 0.00 0.09 0.01 32 1004.7
20260507215555 56 353 0.0 10.0 0.00 0.16 0.01 33 1004.6
20260507215051 56 0 0.0 11.0 0.00 0.16 0.01 34 1004.7
20260507214558 55 0 0.0 18.0 0.00 0.16 0.01 34 1004.8
20260507214048 56 240 4.0 18.0 0.00 0.16 0.01 33 1004.7
20260507213551 56 259 5.0 17.0 0.00 0.16 0.01 33 1004.7
20260507213059 56 0 1.0 11.0 0.00 0.16 0.01 35 1004.5
20260507212550 55 0 1.0 14.0 0.00 0.16 0.01 34 1004.7
20260507212051 56 320 1.0 14.0 0.00 0.16 0.01 34 1004.8
20260507211609 56 283 5.0 12.0 0.00 0.16 0.01 32 1004.7
20260507211050 57 0 0.0 13.0 0.00 0.16 0.01 33 1004.7
20260507210549 57 283 1.0 13.0 0.00 0.16 0.01 32 1004.9
20260507210056 58 318 1.0 16.0 0.00 0.16 0.01 31 1004.9
20260507205552 58 0 2.0 16.0 0.00 0.25 0.01 32 1004.8
20260507205053 59 0 5.0 17.0 0.00 0.25 0.01 31 1004.7
20260507204554 59 0 2.0 17.0 0.00 0.25 0.01 31 1004.7
20260507204051 59 295 7.0 17.0 0.00 0.25 0.01 31 1004.8
20260507203551 59 0 4.0 13.0 0.00 0.25 0.01 32 1004.7
20260507203057 59 286 1.0 12.0 0.00 0.25 0.01 30 1004.5
20260507202548 59 260 1.0 14.0 0.00 0.25 0.01 34 1004.7
20260507202050 59 263 3.0 14.0 0.00 0.25 0.01 32 1004.7
20260507201603 59 255 0.0 15.0 0.00 0.25 0.01 35 1004.7
20260507201048 58 255 2.0 15.0 0.00 0.25 0.01 33 1004.7
20260507200551 58 322 0.0 13.0 0.00 0.25 0.01 33 1004.8
20260507200057 58 304 3.0 13.0 0.00 0.25 0.01 32 1004.9
20260507195551 58 0 1.0 17.0 0.00 0.31 0.01 33 1004.7
20260507195051 58 248 5.0 17.0 0.00 0.31 0.01 35 1004.8
20260507194553 57 0 3.0 17.0 0.00 0.31 0.01 36 1004.8
20260507194050 56 285 2.0 12.0 0.00 0.31 0.01 37 1004.8
20260507193550 55 328 1.0 12.0 0.00 0.31 0.01 37 1004.9
20260507193056 56 331 2.0 12.0 0.00 0.31 0.01 36 1004.9
20260507192552 56 0 0.0 12.0 0.00 0.31 0.01 37 1005.0
20260507192051 56 0 1.0 13.0 0.00 0.31 0.01 38 1005.0
20260507191556 57 0 4.0 15.0 0.00 0.31 0.01 37 1005.1
20260507191052 57 342 2.0 15.0 0.00 0.31 0.01 38 1005.1
20260507190551 57 0 0.0 13.0 0.00 0.31 0.01 41 1005.2
20260507190054 57 0 0.0 13.0 0.00 0.31 0.01 40 1005.3
20260507185551 57 286 0.0 14.0 0.00 0.36 0.01 38 1005.2
20260507185048 57 0 1.0 14.0 0.00 0.36 0.01 38 1005.2
20260507184553 58 0 2.0 14.0 0.00 0.36 0.01 35 1005.2
20260507184054 59 321 3.0 13.0 0.00 0.36 0.01 37 1005.2
20260507183551 58 0 2.0 13.0 0.00 0.36 0.01 36 1005.3
20260507183053 58 258 0.0 17.0 0.00 0.36 0.01 42 1005.4
20260507182554 56 0 1.0 17.0 0.00 0.36 0.01 39 1005.2
20260507182051 55 297 6.0 17.0 0.00 0.36 0.01 39 1005.4
20260507181553 55 0 3.0 16.0 0.00 0.36 0.01 39 1005.4
20260507181050 56 243 5.0 16.0 0.00 0.36 0.01 37 1005.5
20260507180552 57 0 2.0 14.0 0.00 0.36 0.01 38 1005.5
20260507180055 58 0 1.0 13.0 0.00 0.36 0.01 36 1005.4
20260507175551 59 0 1.0 13.0 0.00 0.45 0.01 36 1005.6
20260507175052 58 0 5.0 19.0 0.00 0.45 0.01 40 1005.5
20260507174604 58 0 8.0 19.0 0.00 0.45 0.01 40 1005.4
20260507174048 58 276 7.0 19.0 0.00 0.45 0.01 38 1005.4
20260507173551 58 0 5.0 18.0 0.00 0.45 0.01 39 1005.4
20260507173053 58 249 6.0 18.0 0.00 0.45 0.01 38 1005.4
20260507172552 58 0 5.0 15.0 0.00 0.45 0.01 38 1005.6
20260507172047 57 253 6.0 15.0 0.00 0.45 0.01 39 1005.5
20260507171602 58 0 3.0 14.0 0.00 0.45 0.01 40 1005.7
20260507171051 57 0 4.0 14.0 0.00 0.45 0.01 39 1005.9
20260507170552 57 278 4.0 16.0 0.00 0.45 0.01 43 1005.7
20260507170055 57 0 5.0 16.0 0.00 0.45 0.01 40 1005.8
20260507165551 57 257 2.0 16.0 0.00 0.47 0.01 41 1005.9
20260507165052 56 0 4.0 16.0 0.00 0.47 0.01 43 1005.9
20260507164556 56 0 1.0 15.0 0.00 0.47 0.01 41 1005.9
20260507164051 56 0 4.0 15.0 0.00 0.47 0.01 43 1006.1
20260507163550 56 0 0.0 17.0 0.00 0.47 0.01 47 1006.0
20260507163057 55 0 1.0 17.0 0.00 0.47 0.01 50 1006.2